FENGYUN 1C DEB, 30932

Orbit data source: Space-Track

FENGYUN 1C DEB, 30932 is space debris in SSO originally from a launch on Mon, 10 May 1999 UTC launched from the Taiyaun Space Center, China (TSC). Fengyun 1C debris stems from the Chinese weather satellite Fengyun-1C, which was intentionally destroyed by a Chinese anti-satellite missile in 2007. This event dramatically increased the amount of space debris, with thousands of trackable fragments posing hazards to satellites and human spaceflight. The Fengyun 1C debris cloud has become a focal point in discussions about space sustainability and the need for international regulations to prevent the creation of new debris.

Loading next visibility...
Identifier
30932, 1999-025AZW
Orbit
SSO
Country
Flag of CNCN / PRC
Related business
Manufacturer
Unknown
Mission
Spacecraft
Bus & Motor
Unknown
Mass
Unknown
Launch date (UTC)
1999-05-10 (26 years ago)
Launch vehicle
Unknown
Launch site
Taiyaun Space Center, China (TSC)
Object type
Payload
Rocket body
Debris
Shape & HBR
Unknown shape, 0.1 m
Radar Cross Section
Small (<0.1 m²)

Expand to show TLE details & history
Last TLE update: 1 day ago

TLE from 1 day ago
0 FENGYUN 1C DEB
1 30932U 99025AZW 25295.09368770  .00008518  00000-0  35312-2 0  9993
2 30932  98.9040 227.1240 0060578  78.4475 282.3497 14.25782094956588
Epoch: 2025-10-22T02:14Z
TLE epoch observation values (Epoch: 2025-10-22T02:14:54.617Z)
Latitude
-0°
Longitude
162.62419°
Altitude
799.723 km
Speed
7.458 km/s
True Right ascension
15h 08m 29s
True Declination
0° 00' 00"
Sunlit
Object was in daylight at epoch
Visualization orbit readout
Latitude
Unknown
Longitude
Unknown
Altitude
Unknown
Speed
Unknown
Apparent Right ascension
Unknown
Apparent Declination
Unknown
Sunlit
N/A
Visualization observer readout
Local Sidereal Time
21:16:17
Azimuth
Unknown
Elevation
Unknown
Doppler factor
Unknown
Orbital elements
Apogee altitude
846.527 km
Perigee altitude
759.522 km
Semi-major axis
7,181.161 km
Eccentricity
0.00606
Inclination
98.904°
RAAN
227.124°
Arg. of periapsis
78.4475°
True anomaly
281.67051°
Mean anomaly
282.3497°
Eccentric anomaly
282.01021°
Mean motion
3.56657 °/min
Orbital period
100.94 mins
BSTAR
0.0035312
Loading maneuver chart data...
Computing Atmospheric mass density...

Documentation

Showing up to 5 results
|